Date,TemperatureHighF,TemperatureAvgF,TemperatureLowF,DewpointHighF,DewpointAvgF,DewpointLowF,HumidityHigh,HumidityAvg,HumidityLow,PressureMaxIn,PressureMinIn,WindSpeedMaxMPH,WindSpeedAvgMPH,GustSpeedMaxMPH,PrecipitationSumIn
2013-1-1,33.3,22.6,14.5,12.6,6.9,1.5,66,51,33,30.24,30.06,12,4,12,0.00
2013-1-2,28.8,22.6,16.0,17.2,11.4,5.3,72,62,50,30.24,30.15,10,4,12,0.00
2013-1-3,29.5,24.2,18.0,21.6,13.9,4.5,73,64,54,30.24,30.06,14,6,14,0.00
2013-1-4,38.7,29.6,20.8,20.2,17.1,14.0,77,60,42,30.24,30.03,26,9,26,0.00
2013-1-5,39.2,28.0,16.3,31.9,20.1,13.4,96,74,49,30.33,30.06,16,6,16,0.00
2013-1-6,36.5,33.9,30.7,32.1,26.9,0.0,97,76,60,30.33,29.94,18,7,18,0.05
2013-1-7,38.1,31.6,27.3,22.9,18.3,15.1,76,58,42,30.39,30.15,27,9,27,0.00
2013-1-8,42.6,31.6,25.3,23.0,19.4,16.4,73,61,42,30.27,30.18,17,7,17,0.00
2013-1-9,46.9,38.3,29.1,30.4,24.3,20.2,77,58,38,30.47,30.03,23,9,26,0.00
2013-1-10,44.1,33.3,22.6,30.2,23.2,18.0,89,68,43,30.62,30.21,14,5,16,0.08
2013-1-11,126.5,44.5,35.6,50.2,41.3,29.0,98,89,70,30.21,29.76,172,10,172,0.50
2013-1-12,61.2,50.9,43.7,45.0,40.6,27.2,89,69,44,29.94,29.82,17,6,17,0.00
2013-1-13,43.7,35.9,26.8,37.4,33.5,20.4,98,92,52,30.09,29.85,11,4,11,0.54
2013-1-14,36.9,22.8,11.1,20.4,11.4,5.7,82,63,34,30.50,30.09,13,4,13,0.00
2013-1-15,43.7,20.6,8.4,22.1,9.9,3.8,84,66,31,30.47,30.21,6,1,7,0.00
2013-1-16,36.7,26.3,12.2,26.7,15.1,8.4,93,65,39,30.21,29.82,20,7,22,0.00
2013-1-17,40.3,27.7,16.3,25.9,14.0,0.1,78,57,37,30.39,30.00,20,5,20,0.00
2013-1-18,36.1,23.8,7.2,18.2,9.5,-2.8,80,55,39,30.50,29.94,26,9,27,0.00
2013-1-19,44.2,39.7,35.8,31.9,25.1,17.9,68,56,48,29.97,29.56,24,12,26,0.00
2013-1-20,42.6,20.7,12.0,27.5,3.9,-4.3,71,48,39,30.27,29.56,26,7,30,0.00
2013-1-21,22.1,12.3,3.4,8.3,-2.6,-12.6,74,51,37,30.24,29.97,14,5,20,0.00
2013-1-22,14.0,4.7,-1.8,-2.8,-12.0,-17.1,47,45,41,30.36,30.21,15,4,17,0.00
2013-1-23,19.4,10.0,1.4,9.4,-4.0,-16.8,81,53,41,30.36,30.12,15,6,15,0.00
2013-1-24,24.4,10.0,-1.3,9.0,-5.1,-18.6,80,54,32,30.65,30.18,10,3,12,0.00
2013-1-25,26.2,16.9,9.7,13.4,2.7,-12.5,80,55,35,30.56,30.00,16,6,16,0.00
2013-1-26,39.9,21.7,9.9,14.8,10.0,0.4,82,63,32,30.50,30.06,7,3,9,0.00
2013-1-27,30.6,23.4,11.5,26.2,11.9,3.1,88,63,41,30.53,30.12,20,8,21,0.00
2013-1-28,43.5,36.5,29.5,42.8,35.2,25.5,98,95,85,30.18,29.82,13,6,14,0.33
2013-1-29,58.1,46.1,33.4,54.8,44.9,31.6,98,96,83,30.06,29.44,24,9,27,0.95
2013-1-30,57.6,46.0,30.4,55.2,44.3,22.6,98,94,75,29.44,29.12,20,7,27,0.66
2013-1-31,30.4,21.8,14.9,24.2,11.3,5.1,85,64,46,29.91,29.26,23,7,25,0.58
2013-2-1,21.7,15.1,9.7,9.2,3.5,-4.8,80,61,43,30.27,29.91,20,7,21,0.00
2013-2-2,26.6,14.5,-0.2,13.9,2.8,-11.8,79,60,51,30.24,30.00,17,6,18,0.00
2013-2-3,25.0,12.0,-1.1,9.9,-0.4,-12.3,65,57,45,30.12,29.85,14,3,14,0.00
2013-2-4,32.9,18.6,9.9,15.4,7.9,-0.2,79,64,43,30.09,29.88,7,3,8,0.00
2013-2-5,28.2,22.0,1.9,25.4,13.5,-3.1,91,71,46,30.03,29.76,18,7,18,0.00
2013-2-6,47.5,26.0,9.1,17.9,10.6,2.1,79,54,29,30.30,30.03,12,3,13,0.00
2013-2-7,38.1,30.9,25.3,27.4,18.1,11.0,98,59,45,30.33,29.94,16,7,16,0.00
2013-2-8,33.8,27.5,23.9,28.1,20.2,9.3,98,77,43,30.27,29.88,25,11,26,0.00
2013-2-9,54.1,28.7,-2.2,22.0,10.2,-6.6,81,49,27,30.53,30.30,12,4,13,0.00
2013-2-10,42.3,31.1,16.7,35.5,20.2,11.9,88,66,39,30.33,29.68,28,10,28,0.21
2013-2-11,43.9,37.3,32.2,42.4,28.1,19.7,98,70,50,29.88,29.53,33,13,33,0.09
2013-2-12,32.2,29.8,27.1,22.8,19.0,16.2,70,64,55,30.03,29.88,15,5,18,0.00
2013-2-13,41.7,30.8,26.6,25.7,20.2,17.0,83,65,45,30.00,29.71,11,4,12,0.00
2013-2-14,42.8,34.5,29.8,31.6,27.7,19.6,87,76,58,29.88,29.65,23,9,26,0.00
2013-2-15,31.8,26.2,19.0,21.1,11.7,6.6,70,54,40,30.18,29.88,13,5,16,0.00
2013-2-16,32.5,21.2,15.3,16.1,9.3,1.1,79,61,39,30.15,30.03,14,4,14,0.00
2013-2-17,27.7,17.0,8.4,5.8,0.9,-2.2,66,50,33,30.27,30.15,16,4,16,0.00
2013-2-18,45.7,31.6,16.5,31.0,14.0,1.0,62,48,38,30.27,29.56,29,13,29,0.00
2013-2-19,45.5,29.2,18.1,38.8,19.7,5.8,88,68,52,29.97,29.38,29,12,404,0.12
2013-2-20,23.7,19.8,14.9,11.6,5.9,2.7,66,55,43,30.36,29.94,18,7,404,0.00
2013-2-21,29.5,21.3,18.1,10.8,7.5,4.2,68,55,41,30.50,30.33,18,7,20,0.00
2013-2-23,27.1,25.7,23.9,18.8,17.0,15.9,73,69,64,30.00,29.91,12,6,13,0.00
2013-2-24,46.9,29.3,17.8,23.5,19.3,10.6,96,69,36,30.21,29.94,9,4,10,0.04
2013-2-25,58.6,34.2,23.2,28.5,20.0,14.8,81,59,28,30.30,30.15,8,2,8,0.00
2013-2-26,36.0,30.8,23.7,32.8,23.7,16.6,98,76,53,30.21,29.59,25,10,25,0.12
2013-2-27,46.0,35.9,33.1,39.6,33.5,30.8,98,92,69,29.62,29.53,8,5,9,0.26
2013-2-28,37.2,32.6,28.4,32.3,24.3,19.4,97,71,61,30.03,29.62,20,10,23,0.34
2013-3-1,28.9,26.0,23.7,20.8,16.1,11.9,76,66,54,30.21,30.03,18,9,18,0.00
2013-3-2,30.2,24.3,18.3,15.6,13.2,9.5,76,62,50,30.18,30.12,11,6,12,0.00
2013-3-3,39.9,23.8,11.3,15.2,9.6,5.8,84,56,33,30.15,30.06,9,4,11,0.34
2013-3-4,51.6,25.0,10.9,17.4,8.3,3.6,83,53,24,30.21,30.12,6,2,8,0.00
2013-3-5,41.0,26.4,13.5,22.1,15.3,6.4,84,65,40,30.21,29.91,20,8,22,0.00
2013-3-6,44.8,31.9,26.1,26.2,22.5,20.3,88,70,42,30.27,29.97,17,5,17,0.00
2013-3-7,41.5,31.3,21.2,30.5,20.7,10.8,97,67,40,30.44,30.24,11,3,13,0.00
2013-3-8,47.7,31.6,16.7,27.5,18.3,10.7,87,61,32,30.56,30.41,6,1,6,0.00
2013-3-9,45.7,35.8,25.5,28.1,23.1,20.2,88,61,42,30.47,30.03,17,7,20,0.00
2013-3-10,57.7,49.4,38.7,39.2,32.6,26.1,78,53,41,30.06,29.76,24,7,24,0.00
2013-3-11,54.3,47.6,36.0,49.3,40.7,28.3,98,79,47,29.79,29.47,20,9,24,0.37
2013-3-12,41.7,34.0,28.9,31.1,24.2,17.7,86,68,42,29.94,29.71,21,7,21,0.00
2013-3-13,35.6,28.7,23.0,23.3,13.4,7.5,79,53,32,30.27,29.88,18,6,22,0.00
2013-3-14,45.1,28.2,21.7,18.1,12.2,8.4,71,52,29,30.30,30.12,11,3,13,0.00
2013-3-15,42.8,35.1,30.0,31.5,26.1,13.9,92,70,49,30.12,29.88,10,3,10,0.00
2013-3-16,37.8,29.4,24.4,31.2,20.7,14.1,94,71,46,30.09,29.85,14,6,14,0.00
2013-3-17,43.7,26.6,14.4,20.1,8.9,2.8,87,50,23,30.36,30.06,15,7,15,0.00
2013-3-18,34.9,28.3,19.0,33.5,19.8,6.7,98,71,48,30.27,29.59,21,8,21,0.04
2013-3-19,34.3,26.2,21.9,29.1,15.1,7.3,82,63,43,29.97,29.62,25,8,26,0.00
2013-3-20,34.3,24.2,15.6,15.6,8.6,5.6,66,51,36,30.00,29.88,15,5,15,0.00
2013-3-21,33.8,25.1,15.4,21.0,14.5,6.5,81,64,52,30.00,29.88,17,5,17,0.00
2013-3-22,41.5,30.3,24.4,23.6,14.9,10.5,79,53,39,30.09,29.94,13,6,13,0.00
2013-3-23,39.7,31.6,23.9,22.9,18.5,14.5,77,59,41,30.18,30.06,8,3,10,0.00
2013-3-24,39.0,29.5,21.7,25.4,19.9,15.2,90,69,40,30.12,29.74,21,8,21,5.39
2013-3-25,39.7,34.0,30.4,26.7,22.0,18.3,71,61,49,29.97,29.68,28,13,28,0.00
2013-3-26,50.2,36.9,31.6,30.5,25.5,21.3,82,64,39,30.18,29.94,10,4,10,0.00
2013-3-27,51.6,38.0,28.6,26.4,22.3,19.1,80,55,31,30.24,30.12,15,4,15,0.00
2013-3-28,57.9,40.4,28.9,25.2,21.0,16.5,77,49,25,30.33,30.24,12,4,13,0.00
2013-3-29,60.4,41.6,26.6,24.2,19.1,12.9,70,44,22,30.36,30.24,8,2,9,0.00
2013-3-30,57.6,43.3,25.0,25.5,19.5,11.9,81,43,17,30.30,29.94,16,5,17,0.00
2013-3-31,61.0,46.7,39.0,42.3,31.3,24.5,90,57,30,29.94,29.65,15,6,17,0.00
2013-4-1,39.4,31.7,24.1,29.2,12.0,4.6,86,45,29,30.15,29.71,17,7,20,0.00
2013-4-2,46.4,31.4,20.3,17.0,10.8,5.0,81,45,23,30.30,30.12,14,5,19,0.00
2013-4-3,48.7,32.7,18.5,15.3,10.0,5.6,74,41,21,30.47,30.27,14,4,14,0.00
2013-4-4,59.5,42.7,27.9,20.6,13.7,8.9,51,32,17,30.41,29.94,20,7,20,0.00
2013-4-5,54.7,40.6,29.1,28.8,17.3,8.1,86,42,20,30.24,29.97,20,5,20,0.00
2013-4-6,52.0,35.2,28.8,19.3,15.8,9.0,64,47,27,30.30,29.76,29,10,29,0.00
2013-4-7,57.0,46.6,29.5,45.2,29.8,18.8,78,54,27,30.09,29.59,30,8,30,0.00
2013-4-8,59.7,42.1,27.0,51.6,36.2,22.3,96,80,48,30.09,29.68,25,7,25,0.38
2013-4-9,50.2,43.3,38.8,46.4,41.6,37.7,98,94,71,30.12,29.88,14,6,14,1.44
2013-4-10,40.5,38.6,37.0,39.9,37.4,30.8,98,96,78,30.12,29.91,17,9,17,1.08
2013-4-11,37.6,35.8,34.7,35.4,33.3,30.4,98,91,76,30.09,29.74,23,13,23,0.67
2013-4-12,46.4,37.6,33.3,38.1,33.6,27.5,98,86,58,29.79,29.59,18,8,20,0.33
2013-4-13,43.5,38.0,35.8,38.7,27.6,18.0,98,68,43,30.03,29.79,20,6,22,0.00
2013-4-14,50.7,40.7,31.1,31.8,27.1,21.9,86,59,40,30.18,29.97,17,6,19,0.00
2013-4-15,69.3,56.1,41.0,53.7,40.9,29.5,83,58,44,29.97,29.82,27,10,27,0.00
2013-4-16,63.9,52.6,44.2,55.6,38.6,26.3,98,64,27,30.27,29.85,14,4,14,0.33
2013-4-17,61.2,46.8,36.9,42.2,32.3,25.2,96,60,29,30.39,30.03,22,8,22,10.16
2013-4-18,75.0,57.8,44.4,62.7,53.1,39.6,98,85,60,30.09,29.50,32,11,32,0.66
2013-4-19,60.1,44.0,32.7,58.8,35.5,21.3,98,73,45,29.74,29.32,37,13,37,1.00
2013-4-20,40.8,34.2,26.6,27.2,16.9,10.6,76,50,37,30.50,29.74,17,5,17,0.04
2013-4-21,55.0,39.5,24.6,26.9,19.9,15.7,82,49,26,30.71,30.47,16,6,19,0.00
2013-4-22,68.2,49.2,31.6,29.6,23.4,18.0,71,40,17,30.53,30.18,15,6,15,0.00
2013-4-23,67.3,54.9,42.3,53.2,37.5,28.8,95,55,32,30.21,29.82,30,9,30,0.46
2013-4-24,48.4,39.2,34.2,45.7,31.3,19.8,98,76,40,30.15,29.85,14,6,15,0.54
2013-4-25,56.3,42.4,35.6,36.3,26.1,19.8,82,54,29,30.36,30.09,24,7,24,0.04
2013-4-26,63.0,48.8,31.1,32.5,26.8,21.5,83,46,25,30.50,30.30,22,7,23,0.00
2013-4-27,74.1,58.8,42.8,37.2,30.3,22.2,64,37,16,30.36,30.12,18,7,18,0.00
2013-4-28,64.0,54.5,48.9,52.4,41.4,29.1,94,64,38,30.15,29.85,14,4,15,0.08
2013-4-29,75.9,62.0,52.5,56.4,50.2,44.1,98,70,35,29.94,29.85,115,3,115,0.00
2013-4-30,74.7,63.0,55.8,55.4,51.2,47.5,96,67,39,30.06,29.88,27,10,31,0.33
2013-5-1,84.7,71.8,59.5,52.6,48.6,39.8,71,47,21,30.21,30.00,20,8,20,0.00
2013-5-2,82.6,69.6,57.2,52.7,45.5,38.7,69,45,25,30.24,30.12,25,8,229,0.00
2013-5-3,81.7,68.6,57.6,47.1,37.9,24.4,46,33,18,30.18,30.03,23,8,23,0.00
2013-5-4,76.1,65.7,54.7,42.2,34.2,22.6,53,33,15,30.18,30.12,17,7,19,0.00
2013-5-5,77.0,62.4,47.5,39.9,30.6,18.5,100,35,13,30.18,30.06,19,6,19,0.00
2013-5-6,82.8,63.0,40.5,42.9,34.1,24.4,78,39,15,30.15,30.00,13,4,14,0.00
2013-5-7,84.4,65.2,47.3,49.4,41.0,34.5,73,44,21,30.15,30.00,13,4,14,0.00
2013-5-8,89.6,68.4,48.4,50.0,39.9,28.0,86,42,13,30.09,29.94,11,3,11,0.00
2013-5-9,88.3,70.5,54.3,53.7,43.5,32.2,82,44,15,30.03,29.88,11,3,13,0.00
2013-5-10,67.3,49.8,42.1,54.3,45.9,40.1,98,88,48,29.97,29.79,18,8,18,0.33
2013-5-11,66.0,49.2,41.2,48.7,41.4,28.9,98,78,38,29.97,29.74,23,6,27,0.04
2013-5-12,38.3,38.3,38.3,33.0,32.8,32.7,81,80,80,29.91,29.91,6,4,6,0.00
2013-5-13,61.0,51.2,38.3,33.3,20.7,13.5,82,31,19,30.24,29.91,12,4,15,0.00
2013-5-14,81.5,58.2,44.2,46.4,32.3,23.2,62,38,22,30.15,29.74,19,8,26,0.00
2013-5-15,84.6,70.8,55.8,54.2,42.8,33.2,70,40,19,29.88,29.53,19,6,19,0.00
2013-5-16,86.5,66.9,48.6,43.2,37.4,28.7,71,38,16,30.12,29.82,15,4,15,0.00
2013-5-17,71.8,57.0,41.4,42.9,37.8,33.3,83,51,31,30.24,30.12,10,4,11,0.00
2013-5-18,84.9,66.6,52.5,46.7,40.0,33.6,74,42,18,30.24,30.06,15,6,17,0.00
2013-5-19,93.9,74.8,51.3,58.5,45.7,36.2,70,39,19,30.09,29.82,15,5,15,0.00
2013-5-20,91.9,76.1,65.3,65.1,59.2,51.7,91,60,28,29.88,29.62,28,8,28,0.13
2013-5-21,85.3,74.5,65.8,64.9,57.2,49.5,92,58,32,29.71,29.62,20,7,20,0.04
2013-5-22,81.0,68.7,62.6,64.6,60.7,55.6,95,76,46,29.65,29.47,18,6,18,0.37
2013-5-23,62.6,51.4,42.8,60.1,48.7,38.7,98,90,78,30.18,29.56,22,7,22,0.29
2013-5-24,63.0,47.8,38.5,44.4,32.9,26.4,98,59,31,30.44,30.15,13,6,13,0.00
2013-5-25,71.1,53.1,35.1,40.7,32.9,25.5,95,53,24,30.47,30.30,13,5,13,14.51
2013-5-26,72.9,55.7,36.1,46.6,31.7,25.8,89,47,20,30.44,30.30,11,5,12,0.00
2013-5-27,73.4,55.6,42.1,49.1,34.9,22.5,91,51,20,30.36,30.06,20,8,20,0.00
2013-5-28,75.9,60.3,51.6,69.2,58.3,49.1,98,94,73,30.09,29.76,13,11,13,0.66
2013-5-29,85.1,77.0,63.9,67.5,61.3,57.5,92,60,40,29.82,29.65,15,6,15,0.21
2013-5-30,89.4,80.8,69.4,68.4,61.8,54.9,86,54,35,29.91,29.76,19,9,19,0.25
2013-5-31,82.0,74.5,69.4,64.6,61.1,54.8,84,64,42,29.82,29.68,18,11,18,0.00
2013-6-1,80.6,71.7,64.9,64.9,59.8,53.5,95,68,41,29.71,29.53,11,8,11,0.12
2013-6-2,70.0,65.8,63.3,60.5,55.4,45.6,82,70,44,29.74,29.47,11,11,11,0.21
2013-6-3,73.2,62.0,38.7,42.9,35.0,29.9,89,39,23,30.09,29.97,11,11,11,0.00
2013-6-4,75.9,61.7,45.5,47.4,38.1,28.5,86,47,20,30.21,30.03,11,11,11,0.00
2013-6-5,79.9,61.8,51.6,46.2,37.9,29.3,68,43,20,30.27,30.00,11,8,11,0.00
2013-6-6,70.7,60.4,53.2,48.7,44.8,39.0,76,57,41,30.06,29.82,7,4,7,0.04
2013-6-7,55.9,51.4,49.1,49.7,47.2,44.3,98,86,68,29.91,29.82,7,7,7,0.00
2013-6-10,79.9,70.9,63.7,65.4,63.1,60.3,98,78,54,29.88,29.59,7,4,7,0.87
2013-6-11,87.4,72.0,62.2,70.8,63.0,58.7,98,76,42,29.74,29.65,8,3,8,0.00
2013-6-12,79.5,69.4,58.8,68.0,62.2,57.7,98,80,51,29.76,29.47,8,3,8,0.09
2013-6-13,80.4,69.5,62.1,66.7,57.4,47.7,98,70,36,29.79,29.44,16,5,16,0.66
2013-6-14,82.0,67.9,55.8,59.3,49.8,41.6,98,58,27,30.06,29.82,11,5,344,0.00
2013-6-15,84.2,68.9,57.6,58.2,52.7,44.1,81,58,31,29.97,29.76,10,3,344,0.00
2013-6-16,86.5,73.3,64.4,65.3,57.5,44.9,98,62,29,29.76,29.59,9,1,12,0.25
2013-6-17,90.7,72.6,57.9,59.7,54.0,45.5,95,57,26,29.82,29.68,13,3,13,0.00
2013-6-18,74.5,64.3,50.2,57.4,43.0,30.3,95,50,24,30.12,29.76,17,8,17,0.00
2013-6-19,82.8,64.7,42.6,50.5,38.9,33.0,86,45,19,30.21,30.06,8,5,8,0.00
2013-6-20,88.7,71.1,54.7,50.5,44.1,31.8,84,45,16,30.15,30.09,8,3,8,0.00
2013-6-21,90.9,75.0,58.6,58.2,51.9,48.7,73,47,28,30.18,29.88,14,5,14,0.00
2013-6-22,97.0,80.1,68.2,68.1,58.5,49.0,78,50,29,29.97,29.85,11,4,11,0.00
2013-6-23,93.2,81.3,70.5,70.9,62.4,52.7,98,58,27,29.94,29.85,11,4,11,18.16
2013-6-24,93.4,79.8,69.4,65.9,62.1,55.3,87,57,32,29.94,29.76,10,6,10,0.00
2013-6-25,89.1,73.8,67.3,71.3,64.1,59.9,92,73,42,29.79,29.65,8,3,10,0.46
2013-6-26,93.4,77.0,64.9,70.7,64.9,60.1,98,69,37,29.71,29.59,9,3,9,0.00
2013-6-27,96.3,74.4,65.7,70.9,64.9,58.1,98,77,32,29.62,29.47,14,2,14,0.66
2013-6-28,86.0,71.0,64.9,73.8,63.9,57.3,98,80,41,29.50,29.35,9,3,9,0.29
2013-6-29,78.4,67.8,63.0,64.0,57.9,50.5,98,73,42,29.65,29.41,14,4,14,0.00
2013-6-30,84.2,68.8,56.3,62.6,52.9,35.9,90,60,34,29.91,29.65,18,4,18,0.08
2013-7-1,73.0,62.8,54.3,53.7,46.8,42.2,74,57,35,30.03,29.88,8,5,8,0.00
2013-7-2,82.0,66.7,57.6,56.7,52.1,46.7,84,62,35,30.03,29.88,8,7,10,0.00
2013-7-3,88.3,71.8,57.7,64.2,58.0,53.3,95,66,33,29.97,29.85,10,5,10,0.65
2013-7-4,86.2,73.2,64.2,65.6,58.1,45.9,98,64,28,30.00,29.91,10,4,10,0.00
2013-7-5,94.3,77.0,64.0,67.3,57.7,49.7,90,57,26,29.97,29.88,6,2,6,0.00
2013-7-6,94.6,79.4,66.4,67.6,62.4,55.1,95,60,29,29.94,29.76,10,4,11,0.00
2013-7-7,86.7,75.0,69.1,71.2,66.7,61.6,98,77,45,29.85,29.76,5,3,5,3.18
2013-7-8,86.0,75.6,69.4,70.1,66.9,61.3,93,76,51,29.88,29.79,3,3,3,0.04
2013-7-9,95.2,82.7,72.3,72.0,66.9,60.7,96,65,35,29.79,29.71,4,4,4,0.70
2013-7-10,94.6,79.6,63.7,74.4,63.9,46.2,96,64,31,29.85,29.62,4,4,4,0.00
2013-7-11,86.7,70.8,56.1,59.5,51.3,40.7,93,56,25,29.97,29.85,4,4,4,0.00
2013-7-12,91.6,70.8,52.0,60.5,52.7,47.9,98,59,26,30.09,29.97,4,4,4,0.00
2013-7-13,92.3,75.4,56.7,63.2,52.5,40.5,98,53,17,30.12,30.00,4,4,4,0.00
2013-7-14,97.2,79.8,61.2,68.1,60.5,55.0,94,57,27,30.12,30.00,8,3,8,0.00
2013-7-15,101.5,83.4,67.3,73.9,66.8,60.3,98,63,29,30.18,30.09,10,2,10,0.00
2013-7-16,100.8,84.8,72.9,77.3,69.5,62.7,98,66,32,30.21,30.06,8,2,10,0.00
2013-7-17,102.0,86.3,72.3,71.8,66.6,60.4,87,56,27,30.15,29.94,8,3,9,0.00
2013-7-18,100.8,85.2,72.3,72.6,67.0,61.0,89,58,28,30.06,29.76,12,3,14,0.00
2013-7-19,81.7,78.3,76.5,71.5,69.8,68.8,82,75,67,29.82,29.71,3,3,3,0.00
2013-7-22,91.8,80.1,68.2,64.3,58.8,52.8,77,50,34,29.76,29.59,10,4,12,0.00
2013-7-23,92.1,71.4,60.3,71.9,58.3,42.1,93,66,35,29.85,29.47,15,7,18,0.38
2013-7-24,80.4,64.3,50.2,48.5,42.5,37.4,81,48,25,30.06,29.85,22,5,22,0.00
2013-7-25,86.4,66.6,46.9,57.9,46.3,36.8,98,57,21,30.09,30.00,8,2,12,0.00
2013-7-26,84.6,69.5,58.3,60.8,52.7,48.1,86,58,33,30.06,29.76,11,4,13,0.04
2013-7-27,88.2,68.4,55.6,63.6,56.4,44.0,90,68,32,29.82,29.59,11,3,12,0.17
2013-7-28,72.9,58.7,49.5,53.4,47.9,40.8,93,69,39,29.91,29.79,16,3,18,0.00
2013-7-29,77.4,64.2,56.3,57.9,51.5,45.6,92,67,38,30.09,29.88,10,2,10,0.04
2013-7-30,88.5,68.7,48.0,60.5,51.3,46.0,98,61,26,30.21,30.00,7,2,8,0.04
2013-7-31,69.3,65.1,61.2,65.5,61.6,55.8,98,88,76,30.03,29.76,8,3,8,0.79
2013-8-1,87.1,69.3,57.4,67.0,58.4,47.9,98,73,31,29.82,29.74,10,2,10,0.12
2013-8-2,78.6,66.3,55.9,62.7,55.5,51.9,95,71,42,29.85,29.68,17,4,17,0.12
2013-8-3,84.7,68.6,53.1,62.8,52.5,42.5,98,63,27,30.03,29.76,10,2,12,0.00
2013-8-4,77.5,64.1,52.2,52.9,48.9,43.4,92,61,32,30.18,30.03,10,3,11,0.00
2013-8-5,79.3,63.8,53.8,54.8,49.4,42.4,87,62,32,30.12,29.88,8,2,8,0.00
2013-8-6,82.4,70.1,63.7,66.8,59.9,52.9,94,71,48,29.91,29.71,11,5,11,0.00
2013-8-7,88.7,74.7,62.4,70.8,65.0,58.3,98,76,43,29.74,29.65,14,6,15,0.92
2013-8-8,81.9,69.2,57.7,65.8,54.6,44.4,96,65,30,29.91,29.74,11,4,13,0.00
2013-8-9,88.0,70.9,53.1,60.7,53.3,45.8,98,60,28,29.91,29.82,9,1,10,0.42
2013-8-10,83.8,69.0,54.3,59.0,50.7,42.5,93,57,29,30.09,29.88,10,2,10,0.00
2013-8-11,86.2,69.8,57.2,65.2,52.9,44.6,92,60,26,30.06,29.94,10,2,10,0.00
2013-8-12,73.2,66.1,60.3,65.6,61.2,55.6,98,85,70,29.97,29.71,8,2,8,0.00
2013-8-13,73.4,62.0,52.9,63.1,45.5,33.0,98,60,25,30.12,29.71,13,7,13,0.42
2013-8-14,80.6,59.2,45.1,47.5,42.2,37.5,95,59,22,30.21,30.12,10,8,12,0.42
2013-8-15,78.6,67.9,46.4,53.4,47.6,39.7,95,52,25,30.18,30.00,11,4,12,0.00
2013-8-16,88.2,67.9,48.7,54.4,46.8,38.6,94,54,19,30.18,30.03,6,3,7,0.00
2013-8-17,88.2,69.3,49.1,58.6,47.1,34.6,95,54,16,30.27,30.15,10,3,10,0.00
2013-8-18,89.2,69.7,48.9,60.8,50.7,42.0,96,58,22,30.27,30.00,7,2,7,0.00
2013-8-19,89.2,77.3,54.3,60.8,51.4,40.8,97,45,20,30.09,29.94,5,3,5,0.00
2013-8-20,91.0,73.8,59.9,61.1,56.0,51.0,88,59,28,30.03,29.91,10,5,11,0.00
2013-8-21,91.2,76.6,64.8,61.9,59.3,53.0,88,59,30,30.00,29.82,11,6,13,0.00
2013-8-22,89.1,76.3,64.8,66.8,60.0,51.6,92,60,31,29.94,29.76,3,3,3,6.38
2013-8-23,86.9,69.3,51.8,60.0,51.9,39.0,98,60,20,30.15,29.91,3,3,3,0.00
2013-8-24,90.7,71.9,58.5,59.0,50.2,41.1,83,52,20,30.30,30.15,3,3,3,0.00
2013-8-25,90.9,75.1,60.6,60.9,56.6,49.1,94,57,28,30.21,29.97,3,3,3,0.00
2013-8-26,92.3,78.2,68.9,65.5,61.0,57.0,74,57,36,30.03,29.79,3,3,3,0.00
2013-8-27,87.3,75.9,72.0,73.3,69.2,64.9,96,81,59,29.88,29.74,3,3,3,1.20
2013-8-28,85.3,77.1,71.6,72.6,70.2,65.3,98,82,54,29.88,29.71,3,3,3,0.00
2013-8-29,94.5,82.3,66.7,76.0,67.2,62.3,98,63,38,29.94,29.79,3,3,3,0.00
2013-8-30,88.0,78.4,67.5,69.2,65.6,60.9,98,69,41,29.85,29.56,3,3,3,0.00
2013-8-31,83.7,78.4,70.0,69.1,63.4,57.3,97,61,45,29.76,29.62,3,3,3,0.00
2013-9-1,79.2,76.4,69.4,67.3,60.6,57.9,93,59,52,29.76,29.59,3,3,3,0.29
2013-9-2,77.2,67.5,58.1,67.3,57.9,47.6,98,74,44,29.88,29.59,3,3,3,0.00
2013-9-3,80.6,66.0,56.8,54.1,48.6,43.8,80,57,29,29.97,29.85,3,3,3,29.88
2013-9-4,86.7,70.9,54.9,60.9,56.0,50.7,98,65,34,29.97,29.85,3,3,3,0.00
2013-9-5,74.3,67.2,0.0,60.9,46.2,0.0,74,48,22,30.30,29.97,3,3,3,0.00
2013-9-6,80.6,61.9,44.2,50.7,44.5,39.5,97,58,26,30.33,30.00,3,3,3,0.00
2013-9-7,81.3,68.2,59.2,67.7,57.5,46.7,92,70,45,30.03,29.71,3,3,3,0.04
2013-9-8,69.6,67.3,64.4,67.5,63.2,50.8,98,87,54,29.97,29.76,3,3,3,0.00
2013-9-9,82.9,67.6,50.0,67.6,58.8,45.4,89,75,50,30.03,29.68,3,3,3,0.04
2013-9-10,75.9,73.6,71.2,69.0,67.9,66.9,87,82,74,29.74,29.65,3,3,3,0.00
2013-9-12,80.8,64.5,56.8,65.6,47.5,37.5,89,56,32,29.97,29.76,3,3,3,0.46
2013-9-13,62.6,56.2,41.7,44.6,37.4,32.3,81,51,34,30.15,29.97,3,3,3,0.00
2013-9-14,73.6,58.4,41.7,41.7,35.0,30.1,81,49,22,30.18,30.03,3,3,3,0.00
2013-9-15,62.6,54.7,47.3,53.1,45.5,38.4,95,72,46,30.09,29.97,3,3,3,8.45
2013-9-16,67.1,54.3,39.9,55.0,44.4,34.0,98,73,34,30.33,30.06,3,3,3,0.00
2013-9-17,73.0,52.9,33.1,48.0,38.6,31.9,98,64,32,30.39,30.12,3,3,3,0.00
2013-9-18,80.8,60.9,39.7,54.3,44.0,35.6,95,60,26,30.18,29.88,3,3,3,0.00
2013-9-19,84.0,69.7,60.1,63.1,58.3,52.6,91,69,43,29.94,29.71,3,3,3,0.00
2013-9-20,79.3,70.9,66.0,69.7,64.8,59.8,97,82,57,29.74,29.56,3,3,3,8.66
2013-9-21,77.5,61.7,52.9,64.9,49.2,36.0,96,67,26,29.79,29.53,7,5,7,0.04
2013-9-22,66.4,54.3,46.9,41.2,35.3,29.8,78,50,28,30.03,29.79,7,7,7,0.00
2013-9-23,69.3,54.0,39.0,49.0,35.7,33.7,91,53,29,30.15,30.00,6,5,6,0.00
2013-9-24,74.5,57.5,35.8,52.0,38.9,34.1,98,54,24,30.12,29.88,4,4,4,0.00
2013-9-25,78.3,53.9,37.2,57.9,40.9,33.2,98,69,21,30.00,29.88,7,4,7,26.86
2013-9-26,83.8,57.8,40.5,57.8,43.9,37.7,98,68,21,30.09,29.91,4,4,4,0.00
2013-9-27,84.4,61.5,40.5,57.5,44.1,38.3,98,62,21,30.24,30.03,3,3,3,0.00
2013-9-28,82.2,64.3,43.9,63.5,49.6,41.1,98,65,29,30.15,29.88,3,3,3,0.00
2013-9-29,70.7,60.6,49.5,61.5,54.5,48.3,98,81,62,29.91,29.82,3,3,3,0.17
2013-9-30,75.6,59.7,50.0,60.2,49.1,42.1,98,73,33,29.91,29.82,3,3,3,0.00
2013-10-1,78.4,63.2,52.2,61.5,55.0,50.3,98,78,41,29.91,29.76,3,3,3,0.00
2013-10-2,84.4,66.3,47.8,64.2,44.7,22.7,98,57,11,30.03,29.76,3,3,3,0.00
2013-10-3,84.9,66.2,47.1,60.0,52.6,39.8,84,64,39,30.03,29.74,3,3,3,0.00
2013-10-4,85.1,71.4,63.5,69.3,62.0,56.5,98,76,41,29.88,29.76,3,3,3,0.08
2013-10-5,75.9,67.6,62.6,68.5,64.4,61.7,98,90,69,29.88,29.71,3,3,3,0.25
2013-10-6,72.3,65.0,53.6,68.5,56.6,47.5,98,77,42,29.74,29.47,3,3,3,0.33
2013-10-7,64.4,52.4,46.4,50.6,38.6,28.8,92,61,28,30.00,29.53,3,3,3,0.08
2013-10-8,73.9,56.0,38.8,49.1,33.4,25.9,91,50,18,30.21,30.00,3,3,3,0.00
2013-10-9,76.8,58.7,42.1,50.7,34.0,24.4,85,45,15,30.24,30.09,3,3,3,0.00
2013-10-10,78.8,55.6,37.6,53.4,32.0,20.6,87,50,13,30.21,30.06,3,3,3,0.00
2013-10-11,80.8,55.5,35.2,47.8,32.0,22.0,87,50,12,30.18,30.00,3,3,3,0.00
2013-10-12,82.0,62.8,43.3,56.0,40.0,32.1,90,50,19,30.09,29.88,3,3,3,0.00
2013-10-13,72.1,59.0,41.5,50.8,35.0,23.2,80,45,17,30.36,29.97,3,3,3,0.00
2013-10-14,70.0,50.7,37.0,46.8,31.3,20.4,86,54,17,30.41,30.24,3,3,3,0.00
2013-10-15,69.6,56.3,34.3,58.1,43.6,28.5,91,66,35,30.24,29.74,3,3,3,0.17
2013-10-16,61.7,55.0,50.0,57.8,43.4,31.8,88,67,39,29.82,29.71,3,3,3,0.00
2013-10-17,52.5,50.5,48.2,48.3,46.9,45.2,93,88,79,29.79,29.65,3,3,3,0.33
2013-10-18,67.1,57.1,46.1,58.0,29.4,20.1,98,38,17,29.92,29.74,11,-359,18,0.00
2013-10-19,60.0,46.1,38.8,40.9,31.2,-99.9,87,60,22,29.83,29.65,9,-57,17,0.09
2013-10-20,61.7,49.3,40.1,37.5,30.0,22.0,86,52,24,29.85,29.71,11,-130,13,0.03
2013-10-21,56.7,50.4,41.2,45.9,31.9,19.3,84,50,35,29.80,29.71,10,-9,14,0.13
2013-10-22,56.6,42.2,33.3,22.4,17.9,14.3,54,38,22,29.88,29.80,6,0,12,0.00
2013-10-23,56.3,40.3,31.3,32.2,21.2,8.4,79,50,17,29.97,29.83,9,3,14,0.00
2013-10-24,52.0,38.4,30.4,36.1,23.1,16.4,88,58,28,30.21,29.94,8,2,12,0.00
2013-10-25,54.8,40.0,29.7,34.4,21.0,13.9,89,52,23,30.39,30.09,11,4,19,0.00
2013-10-26,56.2,43.4,34.3,36.7,21.0,14.3,72,42,29,30.09,29.80,15,7,25,0.17
2013-10-27,55.9,41.4,32.0,28.8,21.9,16.6,79,49,25,30.12,29.94,8,0,15,0.00
2013-10-28,51.3,40.4,32.8,32.0,21.8,16.7,73,48,31,30.47,30.06,10,-14,15,0.00
2013-10-29,50.1,41.1,37.0,23.3,20.2,16.5,52,43,30,30.53,30.30,6,-185,8,0.00
2013-10-30,68.6,48.8,29.7,44.4,28.7,20.8,84,50,25,30.30,29.94,8,-43,12,0.00
2013-10-31,61.8,59.5,53.8,60.5,55.9,44.8,100,88,70,29.97,29.03,12,-49,20,1.20
2013-11-1,61.9,49.6,45.9,55.3,36.1,27.2,84,61,41,29.65,29.03,15,-22,30,0.12
2013-11-2,46.3,42.7,35.1,43.7,34.4,24.7,93,73,50,30.15,29.62,12,5,16,0.17
2013-11-3,52.1,39.1,29.1,33.9,23.1,18.1,79,55,29,30.47,30.15,7,3,11,0.00
2013-11-4,55.6,41.7,30.4,26.2,17.4,8.9,71,41,17,30.50,30.33,12,7,18,0.00
2013-11-5,59.1,51.8,46.6,37.6,30.6,22.9,58,44,34,30.36,30.15,10,5,15,0.00
2013-11-6,56.7,52.0,41.2,51.0,39.6,27.6,84,64,36,30.15,29.74,13,8,20,0.45
2013-11-7,50.2,39.9,34.4,33.2,20.1,12.4,73,47,24,30.18,29.97,6,-382,12,0.00
2013-11-8,51.5,37.7,28.3,24.8,15.9,7.7,79,44,19,30.33,30.15,8,-579,10,0.00
2013-11-9,56.5,46.7,36.9,29.5,21.8,15.8,45,37,27,30.21,29.80,15,-364,24,0.00
2013-11-10,52.5,41.6,32.8,24.0,19.0,14.0,59,41,26,30.36,29.94,10,-718,15,0.00
2013-11-11,42.3,35.8,26.7,33.7,20.7,9.6,78,55,41,30.42,30.09,6,-924,6,0.17
2013-11-12,37.7,27.5,20.2,14.6,8.1,3.1,70,45,27,30.62,30.42,0,-999,0,0.00
2013-11-13,44.3,30.7,19.2,13.8,7.1,-0.6,64,40,20,30.65,30.18,7,-766,8,0.00
2013-11-14,52.6,40.6,31.5,13.8,8.8,5.6,34,27,19,30.24,30.00,0,-999,0,0.00
2013-11-15,54.5,44.5,38.8,16.8,12.2,9.6,40,27,18,30.12,30.06,0,-999,0,0.00
2013-11-16,56.7,47.6,36.2,47.5,31.2,16.0,78,54,39,30.18,29.77,0,-999,0,0.00
2013-11-17,63.1,57.2,43.4,53.9,47.9,28.1,91,71,51,29.80,29.12,0,-999,0,0.83
2013-11-18,46.0,39.0,34.5,32.8,17.9,11.0,60,42,37,30.21,29.41,10,-831,15,0.00
2013-11-19,49.9,35.8,27.3,14.0,10.6,2.5,54,37,19,30.47,30.21,6,-544,9,0.00
2013-11-20,48.3,35.1,25.0,22.6,16.2,9.3,79,48,22,30.50,30.30,14,-761,14,0.00
2013-11-21,50.5,44.5,37.6,41.8,27.8,16.8,91,53,38,30.36,30.21,8,-735,10,0.12
2013-11-22,44.6,37.6,25.2,44.1,29.4,14.3,99,74,40,30.45,30.18,10,4,16,0.05
2013-11-23,29.9,23.6,15.8,19.3,7.1,-2.6,75,50,28,30.59,30.36,14,4,20,0.00
2013-11-24,28.6,19.3,12.7,5.7,0.4,-4.4,63,44,25,30.65,30.45,11,4,15,0.00
2013-11-25,33.1,26.2,19.4,21.2,3.3,-5.0,71,38,23,30.47,30.12,18,12,24,0.00
2013-11-26,32.6,30.7,27.4,24.2,20.4,14.2,79,66,55,30.18,30.00,11,-435,15,0.00
2013-11-27,29.4,22.3,14.4,17.1,2.7,-4.6,65,43,26,30.27,30.00,10,-883,12,0.00
2013-11-28,28.3,21.5,11.8,11.6,6.7,-1.2,66,53,33,30.50,30.24,0,-999,0,0.00
2013-11-29,39.9,26.6,19.9,15.8,11.0,7.1,73,53,31,30.77,30.50,8,-324,11,0.00
2013-11-30,46.9,35.6,25.0,17.2,13.5,9.6,57,41,28,30.65,30.12,12,-271,19,0.00
2013-12-1,42.8,36.0,32.0,28.0,22.2,16.6,75,58,41,30.15,30.06,6,-653,9,0.00
2013-12-2,44.2,32.8,26.0,24.0,16.9,7.3,75,54,29,30.12,29.94,4,-702,4,0.00
2013-12-3,36.1,31.9,23.0,31.9,22.0,11.9,84,67,50,30.03,29.88,8,-686,10,0.08
2013-12-4,57.2,45.2,34.7,48.1,39.7,30.8,99,82,60,29.97,29.62,15,-627,23,0.08
2013-12-5,60.0,43.0,28.6,58.0,26.6,8.6,98,53,40,30.21,29.59,11,6,20,3.29
2013-12-6,28.6,23.8,18.1,8.9,4.0,-0.7,47,42,36,30.47,30.21,8,-110,10,0.00
2013-12-7,29.0,18.8,8.4,2.0,-3.1,-8.6,47,38,23,30.71,30.47,6,-154,13,0.00
2013-12-8,26.2,17.7,7.6,18.6,0.0,-9.4,73,46,33,30.71,30.06,10,4,13,0.00
2013-12-9,30.5,26.0,17.1,24.4,12.3,-4.1,84,57,38,30.15,29.91,13,-550,15,0.00
2013-12-10,22.0,14.9,4.6,7.8,-3.6,-13.5,60,44,25,30.24,29.94,18,-290,27,0.00
2013-12-11,27.7,15.5,3.3,7.5,-3.1,-18.2,61,44,30,30.50,30.24,7,4,13,0.00
2013-12-12,20.8,12.9,-0.2,6.6,-6.6,-21.4,57,41,33,30.50,30.21,15,8,23,0.00
2013-12-13,32.0,24.0,19.9,12.2,6.6,1.9,61,48,31,30.39,30.21,11,5,18,0.00
2013-12-14,22.3,19.9,15.4,13.7,8.5,4.7,76,61,51,30.39,29.88,14,8,18,0.00
2013-12-15,25.8,18.3,8.6,14.0,4.2,-10.3,79,56,33,30.09,29.85,9,4,17,0.00
2013-12-16,33.9,14.0,-1.9,4.6,-10.5,-25.1,54,33,21,30.27,30.09,7,2,11,0.00
2013-12-17,29.9,22.1,13.5,21.5,9.0,-14.4,78,58,27,30.09,29.88,12,5,15,0.00
2013-12-18,34.7,27.1,23.5,20.1,10.8,-0.1,79,52,31,30.18,29.91,13,-14,20,0.00
2013-12-19,46.3,34.7,27.4,28.5,17.6,3.0,87,51,33,30.06,29.88,12,-556,17,0.00
2013-12-20,35.4,33.3,31.8,32.9,30.5,28.3,100,90,78,29.97,29.80,6,-962,10,0.42
2013-12-21,33.4,32.2,31.3,33.0,30.4,26.1,100,93,80,29.94,29.77,5,-915,5,0.04
2013-12-23,24.4,21.9,19.0,17.0,10.6,6.8,75,62,54,30.39,30.36,0,0,0,0.00
2013-12-24,27.9,13.5,2.6,9.9,-4.8,-18.9,68,45,28,30.59,30.39,0,0,0,0.00
2013-12-25,23.7,19.0,10.5,17.1,4.2,-11.8,76,53,35,30.56,30.15,0,0,0,0.00
2013-12-26,31.7,25.0,21.8,20.5,12.9,2.3,81,61,31,30.36,30.09,0,0,0,0.00
2013-12-27,42.8,30.7,25.3,27.3,19.4,12.9,81,63,41,30.39,30.09,0,-252,0,0.09
2013-12-28,50.1,40.3,31.5,25.0,19.5,17.7,75,44,29,30.18,29.91,12,-870,12,0.08
2013-12-29,42.1,32.9,17.6,23.3,14.1,-1.9,78,47,37,30.12,29.77,10,-69,16,0.00
2013-12-30,28.6,16.9,12.3,1.4,-5.4,-8.9,50,37,23,30.33,30.12,9,4,13,0.00
2013-12-31,23.0,15.6,10.6,5.4,-0.5,-6.7,62,49,32,30.39,30.12,8,4,15,0.00
2014-1-1,15.4,11.3,8.8,-3.1,-8.0,-11.1,47,41,30,30.47,30.33,14,6,17,0.00
2014-1-2,15.2,10.5,0.9,-1.9,-8.3,-15.1,49,42,37,30.39,30.21,20,12,26,0.00